Location: Freistadt
(48.5112°N, 14.5013°E)
Time: 08:57:51
(UTC+02:00)

NOAA 16 DEB - Pass Details

Date: 03 June 2024
Orbit: 738 x 810 km, 99.0° (Epoch: 16 June)

Event Time Altitude Azimuth Distance (km) Brightness Sun altitude
Rises 02:36:31 0° 112° (ESE) 3,312 ? -15.9°
Reaches altitude 10° 02:39:40 10° 92° (E) 2,376 ? -15.7°
Maximum altitude 02:42:50 17° 55° (NE) 1,949 ? -15.5°
Drops below altitude 10° 02:46:00 10° 17° (NNE) 2,359 ? -15.3°
Sets 02:49:06 0° 358° (N) 3,278 ? -15.1°
